Tracking 25710 objects as of 6-Jul-2022
HD Live streaming from Space Station
objects crossing your sky now

STARLINK-3652

Track STARLINK-3652 now!
10-day predictions
STARLINK-3652 is classified as:


NORAD ID: 51991
Int'l Code: 2022-025AM
Perigee: 545.8 km
Apogee: 548.0 km
Inclination: 53.2 °
Period: 95.4 minutes
Semi major axis: 6917 km
RCS: Unknown
Launch date: March 9, 2022
Source: United States (US)
Launch site: AIR FORCE EASTERN TEST RANGE (AFETR)
aabbcc
Your satellite tracking list
Your tracking list is empty




NASA's NSSDC Master Catalog

Two Line Element Set (TLE):
1 51991U 22025AM  22187.25001157  .00038925  00000-0  24515-2 0  9993
2 51991  53.2194 305.5596 0001572  52.4862 131.8113 15.08822649 19492
Source of the keplerian elements: AFSPC